Falfurrias, TX

11:14 PM CST on February 06, 2016 (GMT -0600)
Falfurrias

Weather History for KBKS - March, 2013

Change the Weather History Date:

Tuesday, March 5, 2013

  Actual Average (KNQI) Record (KNQI)
Temperature  
Mean Temperature 66 °F -  
Max Temperature 76 °F 72 °F 88 °F (1999)
Min Temperature 56 °F 53 °F 1 °F (2013)
Cooling Degree Days 1    
Growing Degree Days 16 (Base 50)    
Moisture  
Dew Point 44 °F    
Average Humidity 50    
Maximum Humidity 91    
Minimum Humidity 18    
Precipitation  
Precipitation 0.00 in - - ()
Sea Level Pressure  
Sea Level Pressure 30.10 in    
Wind  
Wind Speed 12 mph (North)    
Max Wind Speed 26 mph    
Max Gust Speed 39 mph    
Visibility 10 miles    
Events      
Averages and records for this station are not official NWS values.
T = Trace of Precipitation, MM = Missing Value Source: NWS Daily Summary

Daily Weather History Graph

Daily Weather History Graph

Search for Another Location

Airport or City:

Trip Planner

Search our weather history database for the weather conditions in past years. The results will help you decide how hot, cold, wet, or windy it might be!

Date:

Astronomy

Mar. 05, 2013 Rise Set
Actual Time 6:52 AM CST 6:35 PM CST
Civil Twilight 6:28 AM CST 6:59 PM CST
Nautical Twilight 6:01 AM CST 7:26 PM CST
Astronomical Twilight 5:34 AM CST 7:53 PM CST
Moon 1:42 AM CST (3/5) 12:39 PM CST (3/5)
Length of Visible Light 12h 30m
Length of Day
11h 43m
Last Quarter, 40% of the Moon is Illuminated
Mar 5
Last Quarter
Mar 11
New
Mar 19
First Quarter
Mar 27
Full
Apr 2
Last Quarter

Hourly Weather History & Observations

Time (CST) Temp. Dew Point Humidity Pressure Visibility Wind Dir Wind Speed Gust Speed Precip Events Conditions
12:15 AM 69.3 °F 63.9 °F 83% 29.82 in 10.0 mi South 13.8 mph - N/A   Scattered Clouds
12:35 AM 68.9 °F 63.9 °F 84% 29.81 in 10.0 mi SSE 13.8 mph - N/A   Scattered Clouds
12:55 AM 68.9 °F 63.7 °F 83% 29.81 in 10.0 mi South 11.5 mph - N/A   Clear
1:15 AM 68.5 °F 63.5 °F 84% 29.81 in 10.0 mi South 12.7 mph 18.4 mph N/A   Clear
1:35 AM 68.4 °F 63.1 °F 83% 29.81 in 10.0 mi South 12.7 mph - N/A   Clear
1:55 AM 68.2 °F 63.0 °F 83% 29.80 in 10.0 mi South 13.8 mph - N/A   Clear
2:15 AM 68.2 °F 63.0 °F 83% 29.80 in 10.0 mi South 10.4 mph - N/A   Clear
2:35 AM 68.0 °F 63.0 °F 84% 29.80 in 10.0 mi South 11.5 mph - N/A   Clear
2:55 AM 68.0 °F 63.1 °F 84% 29.80 in 10.0 mi South 11.5 mph - N/A   Clear
3:15 AM 67.5 °F 63.1 °F 86% 29.81 in 10.0 mi South 10.4 mph - N/A   Clear
3:35 AM 67.5 °F 63.1 °F 86% 29.81 in 10.0 mi South 9.2 mph - N/A   Clear
3:55 AM 67.1 °F 63.0 °F 87% 29.81 in 10.0 mi South 9.2 mph - N/A   Clear
4:15 AM 66.7 °F 62.8 °F 87% 29.81 in 10.0 mi South 10.4 mph - N/A   Clear
4:35 AM 67.1 °F 62.8 °F 86% 29.81 in 10.0 mi South 10.4 mph - N/A   Clear
4:55 AM 67.1 °F 62.8 °F 86% 29.82 in 10.0 mi South 10.4 mph - N/A   Clear
5:15 AM 66.9 °F 62.6 °F 86% 29.82 in 10.0 mi South 6.9 mph - N/A   Clear
5:35 AM 66.6 °F 62.6 °F 87% 29.84 in 10.0 mi South 6.9 mph - N/A   Clear
5:55 AM 66.2 °F 62.2 °F 87% 29.85 in 10.0 mi South 5.8 mph - N/A   Clear
6:15 AM 65.3 °F 61.9 °F 89% 29.85 in 10.0 mi SSW 4.6 mph - N/A   Clear
6:35 AM 64.0 °F 61.3 °F 91% 29.87 in 10.0 mi South 4.6 mph - N/A   Clear
7:15 AM 63.5 °F 60.4 °F 90% 29.98 in 10.0 mi NNW 15.0 mph 21.9 mph N/A   Mostly Cloudy
7:35 AM 64.4 °F 60.3 °F 86% 29.99 in 10.0 mi NNE 8.1 mph - N/A   Mostly Cloudy
7:55 AM 66.0 °F 61.2 °F 84% 30.01 in 10.0 mi NNE 6.9 mph - N/A   Scattered Clouds
8:15 AM 68.0 °F 61.7 °F 80% 30.01 in 10.0 mi NNE 6.9 mph - N/A   Clear
8:35 AM 70.0 °F 61.9 °F 75% 30.03 in 10.0 mi NNE 11.5 mph - N/A   Clear
8:55 AM 71.4 °F 61.7 °F 71% 30.06 in 10.0 mi NNE 12.7 mph 18.4 mph N/A   Clear
9:15 AM 71.2 °F 57.9 °F 63% 30.09 in 10.0 mi North 25.3 mph 35.7 mph N/A   Mostly Cloudy
9:35 AM 63.5 °F 47.1 °F 55% 30.11 in 7.0 mi North 26.5 mph 39.1 mph N/A   Overcast
9:55 AM 64.0 °F 46.6 °F 53% 30.14 in 10.0 mi North 20.7 mph 28.8 mph N/A   Overcast
10:15 AM 63.0 °F 43.0 °F 48% 30.15 in 10.0 mi North 23.0 mph 38.0 mph N/A   Overcast
10:35 AM 63.3 °F 42.4 °F 46% 30.17 in 10.0 mi North 18.4 mph 27.6 mph N/A   Overcast
10:55 AM 64.0 °F 41.9 °F 44% 30.19 in 10.0 mi North 23.0 mph 28.8 mph N/A   Overcast
11:15 AM 64.6 °F 41.2 °F 42% 30.21 in 10.0 mi North 17.3 mph 29.9 mph N/A   Overcast
11:35 AM 65.5 °F 40.6 °F 40% 30.22 in 10.0 mi North 19.6 mph 26.5 mph N/A   Overcast
11:55 AM 67.1 °F 39.7 °F 37% 30.23 in 10.0 mi North 20.7 mph 27.6 mph N/A   Overcast
12:15 PM 68.2 °F 39.2 °F 35% 30.23 in 10.0 mi North 20.7 mph 31.1 mph N/A   Overcast
12:35 PM 69.4 °F 38.8 °F 33% 30.23 in 10.0 mi North 16.1 mph 28.8 mph N/A   Overcast
12:55 PM 70.5 °F 38.1 °F 31% 30.22 in 10.0 mi North 18.4 mph 28.8 mph N/A   Overcast
1:15 PM 71.8 °F 37.6 °F 29% 30.22 in 10.0 mi North 15.0 mph 25.3 mph N/A   Overcast
1:35 PM 72.9 °F 37.4 °F 28% 30.21 in 10.0 mi North 16.1 mph 25.3 mph N/A   Overcast
1:55 PM 75.0 °F 36.5 °F 25% 30.20 in 10.0 mi North 21.9 mph 31.1 mph N/A   Scattered Clouds
2:15 PM 76.1 °F 35.8 °F 23% 30.20 in 10.0 mi North 20.7 mph 27.6 mph N/A   Clear
2:35 PM 76.1 °F 34.7 °F 22% 30.20 in 10.0 mi North 19.6 mph 28.8 mph N/A   Clear
2:55 PM 76.3 °F 33.8 °F 21% 30.20 in 10.0 mi North 17.3 mph 24.2 mph N/A   Clear
3:15 PM 75.6 °F 32.9 °F 21% 30.20 in 10.0 mi North 20.7 mph 28.8 mph N/A   Clear
3:35 PM 74.8 °F 32.4 °F 21% 30.20 in 10.0 mi North 17.3 mph 24.2 mph N/A   Clear
3:55 PM 75.9 °F 31.8 °F 20% 30.21 in 10.0 mi North 16.1 mph 24.2 mph N/A   Clear
4:15 PM 74.3 °F 28.6 °F 18% 30.22 in 10.0 mi North 17.3 mph 26.5 mph N/A   Clear
4:35 PM 73.4 °F 30.0 °F 20% 30.22 in 10.0 mi North 15.0 mph 24.2 mph N/A   Clear
4:55 PM 73.0 °F 30.6 °F 21% 30.22 in 10.0 mi North 15.0 mph 21.9 mph N/A   Clear
5:15 PM 73.2 °F 30.2 °F 20% 30.23 in 10.0 mi North 11.5 mph 19.6 mph N/A   Clear
5:35 PM 72.7 °F 30.4 °F 21% 30.23 in 10.0 mi North 11.5 mph 16.1 mph N/A   Clear
5:55 PM 72.1 °F 30.6 °F 22% 30.23 in 10.0 mi North 12.7 mph - N/A   Clear
6:15 PM 71.6 °F 30.2 °F 22% 30.24 in 10.0 mi North 8.1 mph - N/A   Clear
6:35 PM 70.5 °F 29.1 °F 21% 30.24 in 10.0 mi North 6.9 mph - N/A   Clear
6:55 PM 68.5 °F 28.2 °F 22% 30.25 in 10.0 mi North 5.8 mph - N/A   Clear
7:15 PM 67.3 °F 27.9 °F 23% 30.26 in 10.0 mi North 3.5 mph - N/A   Clear
7:35 PM 66.2 °F 27.9 °F 24% 30.26 in 10.0 mi North 4.6 mph - N/A   Clear
7:55 PM 64.6 °F 27.7 °F 25% 30.27 in 10.0 mi North 4.6 mph - N/A   Clear
8:15 PM 63.9 °F 27.3 °F 25% 30.27 in 10.0 mi North 4.6 mph - N/A   Scattered Clouds
8:35 PM 62.8 °F 26.8 °F 26% 30.28 in 10.0 mi NNW 3.5 mph - N/A   Scattered Clouds
8:55 PM 62.6 °F 26.4 °F 25% 30.28 in 10.0 mi North 3.5 mph - N/A   Scattered Clouds
9:15 PM 61.7 °F 26.6 °F 26% 30.29 in 10.0 mi NNW 4.6 mph - N/A   Clear
9:35 PM 59.9 °F 26.6 °F 28% 30.29 in 10.0 mi North 4.6 mph - N/A   Scattered Clouds
9:55 PM 59.7 °F 26.2 °F 28% 30.30 in 10.0 mi North 5.8 mph - N/A   Clear
10:15 PM 59.2 °F 26.2 °F 28% 30.31 in 10.0 mi North 4.6 mph - N/A   Clear
10:35 PM 59.5 °F 26.1 °F 28% 30.31 in 10.0 mi NNW 3.5 mph - N/A   Clear
10:55 PM 58.1 °F 25.7 °F 29% 30.32 in 10.0 mi North 4.6 mph - N/A   Clear
11:15 PM 58.3 °F 25.7 °F 29% 30.32 in 10.0 mi NNW 3.5 mph - N/A   Clear
11:35 PM 56.5 °F 25.3 °F 30% 30.31 in 10.0 mi North 5.8 mph - N/A   Clear
11:55 PM 56.3 °F 25.0 °F 30% 30.32 in 10.0 mi North 4.6 mph - N/A   Clear